FW7738 Weather Reports


Display with metric or nautical units.
time (UTC)temp
F
wind
direction
speed
MPH
gust
MPH
rain 1hr
in
rain 24hr
in
rain mn
in
humidity
%
barometer
mb
20260508141042 68 81 2.0 6.0 0.00 0.33 0.00 65 1011.3
20260508140018 67 79 5.0 10.0 0.00 0.33 0.00 68 1011.5
20260508135033 66 74 5.0 10.0 0.00 0.33 0.00 70 1011.6
20260508134029 66 73 5.0 11.0 0.00 0.33 0.00 70 1011.5
20260508133044 65 83 3.0 8.0 0.00 0.33 0.00 70 1011.6
20260508132020 65 51 2.0 4.0 0.00 0.33 0.00 71 1012.0
20260508131035 65 47 2.0 6.0 0.00 0.33 0.00 71 1012.2
20260508130030 65 101 3.0 7.0 0.00 0.33 0.00 71 1012.4
20260508125025 64 82 2.0 6.0 0.00 0.33 0.00 72 1012.2
20260508124021 64 98 2.0 6.0 0.00 0.33 0.00 72 1012.4
20260508123016 64 84 1.0 3.0 0.00 0.33 0.00 72 1012.5
20260508122051 64 93 2.0 6.0 0.00 0.33 0.00 73 1012.5
20260508121027 64 110 2.0 4.0 0.00 0.33 0.00 77 1012.6
20260508120042 64 128 1.0 4.0 0.00 0.33 0.00 76 1012.6
20260508115018 64 128 1.0 3.0 0.00 0.33 0.00 76 1012.5
20260508114033 64 80 0.0 2.0 0.00 0.33 0.00 76 1012.4
20260508113028 64 68 0.0 1.0 0.00 0.33 0.00 76 1012.4
20260508112024 63 86 1.0 2.0 0.00 0.33 0.00 76 1012.3
20260508111019 63 82 2.0 3.0 0.00 0.33 0.00 76 1012.3
20260508110035 63 102 3.0 4.0 0.00 0.33 0.00 76 1012.4
20260508105051 63 91 3.0 6.0 0.00 0.34 0.00 77 1012.5
20260508104026 63 96 3.0 6.0 0.00 0.34 0.00 76 1012.5
20260508103042 64 105 2.0 3.0 0.00 0.34 0.00 75 1012.8
20260508102017 64 108 0.0 2.0 0.00 0.34 0.00 74 1012.9
20260508101032 64 89 1.0 3.0 0.00 0.34 0.00 74 1012.8
20260508100048 63 87 1.0 2.0 0.00 0.34 0.00 74 1012.6
20260508095023 63 91 1.0 4.0 0.00 0.34 0.00 74 1012.5
20260508094019 63 97 3.0 6.0 0.00 0.34 0.00 74 1012.3
20260508093034 64 75 0.0 2.0 0.00 0.34 0.00 71 1012.4
20260508092029 65 108 2.0 6.0 0.00 0.34 0.00 68 1012.6
20260508091044 64 23 0.0 1.0 0.00 0.34 0.00 68 1012.5
20260508090020 63 298 1.0 3.0 0.00 0.34 0.00 69 1012.6
20260508085035 62 279 2.0 4.0 0.00 0.34 0.00 71 1012.5
20260508084030 61 320 1.0 2.0 0.00 0.34 0.00 73 1012.2
20260508083046 60 7 3.0 7.0 0.00 0.34 0.00 75 1011.8
20260508082021 59 309 1.0 3.0 0.00 0.34 0.00 78 1011.9
20260508081016 58 327 2.0 6.0 0.00 0.34 0.00 78 1012.0
20260508080032 58 324 3.0 6.0 0.00 0.34 0.00 78 1012.0
20260508075027 58 293 3.0 6.0 0.00 0.34 0.00 78 1012.1
20260508074022 58 331 3.0 6.0 0.00 0.34 0.00 79 1011.9
20260508073018 57 302 3.0 6.0 0.00 0.34 0.00 79 1012.2
20260508072033 57 301 3.0 6.0 0.00 0.34 0.00 80 1012.1
20260508071029 56 318 3.0 6.0 0.00 0.34 0.00 81 1012.0
20260508070024 56 320 4.0 8.0 0.00 0.34 0.00 82 1012.2
20260508065059 56 286 2.0 4.0 0.00 0.34 0.00 82 1012.1
20260508064055 56 277 1.0 4.0 0.00 0.34 0.00 82 1011.9
20260508063030 55 355 2.0 6.0 0.00 0.34 0.00 82 1011.5
20260508062045 55 297 1.0 4.0 0.00 0.34 0.00 82 1011.6
20260508061021 55 313 2.0 4.0 0.00 0.34 0.00 83 1011.5
20260508060016 55 312 3.0 6.0 0.00 0.34 0.00 82 1011.4
20260508055032 54 299 2.0 6.0 0.00 0.34 0.00 84 1011.4
20260508054027 54 336 2.0 4.0 0.00 0.34 0.00 84 1011.0
20260508053022 54 295 4.0 7.0 0.00 0.34 0.00 85 1011.1
20260508052018 53 279 5.0 8.0 0.00 0.34 0.00 85 1010.9
20260508051034 53 288 4.0 8.0 0.00 0.34 0.00 86 1010.6
20260508050029 53 279 4.0 8.0 0.00 0.34 0.00 86 1010.5
20260508045024 54 272 3.0 8.0 0.00 0.34 0.00 85 1010.5
20260508044020 54 295 1.0 2.0 0.00 0.34 0.00 85 1010.4
20260508043035 54 309 1.0 3.0 0.00 0.34 0.00 85 1010.2
20260508042031 54 327 1.0 2.0 0.00 0.34 0.00 85 1010.4
20260508041046 54 323 0.0 4.0 0.00 0.34 0.00 85 1010.3
20260508040021 54 305 4.0 8.0 0.00 0.34 0.00 85 1010.1
20260508035017 54 303 4.0 10.0 0.00 0.34 0.00 85 1010.1
20260508034033 54 299 4.0 8.0 0.00 0.34 0.00 85 1010.2
20260508033027 54 301 3.0 7.0 0.00 0.34 0.00 84 1010.3
20260508032023 54 306 2.0 4.0 0.00 0.34 0.00 85 1010.5
20260508031019 54 337 0.0 2.0 0.00 0.34 0.00 85 1010.7
20260508030034 54 334 0.0 2.0 0.00 0.34 0.00 85 1010.7
20260508025050 55 0.0 0.0 0.00 0.34 0.00 85 1010.7
20260508024025 55 343 1.0 3.0 0.00 0.34 0.00 84 1010.9
20260508023020 55 305 1.0 3.0 0.00 0.34 0.00 83 1010.9
20260508022016 55 323 3.0 6.0 0.00 0.34 0.00 83 1010.6
20260508021031 55 312 5.0 8.0 0.00 0.34 0.00 83 1010.8
20260508020047 55 311 4.0 7.0 0.00 0.34 0.00 84 1011.1
20260508015022 56 289 4.0 7.0 0.00 0.34 0.00 84 1011.0
20260508014017 56 293 4.0 8.0 0.00 0.34 0.00 83 1010.9
20260508013033 56 299 4.0 7.0 0.00 0.34 0.00 83 1011.0
20260508012028 56 308 4.0 8.0 0.00 0.34 0.00 83 1011.2
20260508011023 56 304 5.0 8.0 0.00 0.34 0.00 83 1011.2
20260508010019 56 305 5.0 7.0 0.00 0.34 0.00 84 1011.3
20260508005034 56 298 5.0 9.0 0.00 0.34 0.00 86 1011.4
20260508004030 56 293 5.0 10.0 0.00 0.34 0.00 87 1011.5
20260508003025 56 290 4.0 8.0 0.00 0.34 0.00 88 1011.6
20260508002020 56 293 4.0 8.0 0.00 0.34 0.00 88 1011.6
20260508001035 56 281 5.0 8.0 0.00 0.34 0.00 88 1011.6
20260508000050 56 289 5.0 9.0 0.00 0.34 0.34 86 1011.7
20260507235026 57 291 4.0 8.0 0.00 0.34 0.34 83 1011.7
20260507234021 57 294 4.0 7.0 0.00 0.34 0.34 84 1011.8
20260507233016 56 304 5.0 7.0 0.00 0.34 0.34 86 1011.9
20260507232032 56 312 5.0 9.0 0.00 0.34 0.34 89 1012.0
20260507231047 56 299 4.0 8.0 0.00 0.34 0.34 90 1012.0
20260507230023 56 315 5.0 8.0 0.00 0.34 0.34 91 1011.9
20260507225018 56 314 4.0 7.0 0.00 0.34 0.34 91 1012.0
20260507224033 56 310 4.0 7.0 0.00 0.34 0.34 92 1012.1
20260507223049 56 322 4.0 7.0 0.00 0.34 0.34 93 1012.2
20260507222024 56 312 5.0 8.0 0.00 0.34 0.34 93 1012.2
20260507221020 57 312 4.0 7.0 0.00 0.34 0.34 93 1012.3
20260507220015 57 295 3.0 8.0 0.00 0.34 0.34 93 1012.2
20260507215031 57 307 3.0 7.0 0.00 0.34 0.34 93 1012.1
20260507214026 57 315 3.0 7.0 0.00 0.34 0.34 93 1012.0
20260507213022 57 307 3.0 7.0 0.00 0.34 0.34 93 1012.0
20260507212017 57 287 3.0 4.0 0.00 0.34 0.34 93 1011.8
20260507211032 57 288 3.0 4.0 0.00 0.34 0.34 93 1011.7
20260507210108 57 298 3.0 4.0 0.00 0.34 0.34 93 1011.6
20260507205023 57 307 3.0 4.0 0.00 0.34 0.34 93 1011.3
20260507204018 57 318 2.0 4.0 0.00 0.34 0.34 93 1011.3
20260507203034 57 350 1.0 2.0 0.00 0.34 0.34 93 1011.2
20260507202029 57 1 1.0 2.0 0.00 0.34 0.34 93 1011.3
20260507201024 57 14 0.0 1.0 0.01 0.34 0.34 92 1011.2
20260507200021 57 0.0 0.0 0.04 0.34 0.34 92 1011.1
20260507195036 57 345 1.0 3.0 0.06 0.34 0.34 91 1011.0
20260507194031 58 360 1.0 1.0 0.07 0.34 0.34 91 1010.9
20260507193047 57 112 0.0 1.0 0.09 0.34 0.34 90 1010.9
20260507192022 57 268 1.0 3.0 0.11 0.33 0.33 90 1010.7
20260507191038 57 296 2.0 3.0 0.13 0.33 0.33 91 1010.9
20260507190034 57 355 0.0 2.0 0.17 0.30 0.30 90 1011.2
20260507185029 57 315 3.0 6.0 0.22 0.28 0.28 90 1011.1
20260507184024 57 305 2.0 4.0 0.24 0.27 0.27 90 1011.1
20260507183040 57 308 2.0 6.0 0.23 0.25 0.25 90 1011.2
20260507182016 57 336 2.0 4.0 0.22 0.22 0.22 89 1011.0
20260507181031 56 317 5.0 8.0 0.20 0.20 0.20 89 1011.0
20260507180107 57 344 6.0 9.0 0.13 0.13 0.13 88 1010.9
20260507175022 57 354 6.0 9.0 0.06 0.06 0.06 87 1010.7
20260507174037 58 351 7.0 11.0 0.03 0.04 0.04 83 1010.6
20260507173113 61 329 9.0 16.0 0.02 0.02 0.02 73 1010.6
20260507172048 62 339 6.0 11.0 0.00 0.00 0.00 65 1010.7
20260507171024 64 351 8.0 17.0 0.00 0.00 0.00 67 1010.5
20260507170019 66 96 4.0 8.0 0.00 0.00 0.00 72 1010.2
20260507165035 66 71 3.0 9.0 0.00 0.00 0.00 69 1010.1
20260507164030 66 80 1.0 6.0 0.00 0.00 0.00 70 1010.0
20260507163026 66 75 2.0 6.0 0.00 0.00 0.00 70 1009.8
20260507162021 66 92 3.0 7.0 0.00 0.00 0.00 71 1009.7
20260507161056 66 83 2.0 8.0 0.00 0.00 0.00 68 1009.4
20260507160032 66 70 3.0 8.0 0.00 0.00 0.00 68 1009.5
20260507155047 65 68 3.0 8.0 0.00 0.00 0.00 68 1009.5
20260507154023 66 88 4.0 8.0 0.00 0.00 0.00 70 1009.6
20260507153018 65 93 7.0 13.0 0.00 0.00 0.00 73 1009.6
20260507152034 65 89 5.0 14.0 0.00 0.00 0.00 73 1009.4
20260507151029 66 99 6.0 15.0 0.00 0.00 0.00 73 1009.5
20260507150025 66 81 4.0 9.0 0.00 0.00 0.00 74 1009.5
20260507145020 66 90 5.0 11.0 0.00 0.00 0.00 74 1009.6
20260507144016 66 90 6.0 13.0 0.00 0.00 0.00 73 1009.7
20260507143111 66 96 7.0 15.0 0.00 0.00 0.00 73 1009.8
20260507142027 66 97 6.0 14.0 0.00 0.00 0.00 71 1009.9